Location: Deuil
(48.9767°N, 2.3272°E)
Time: 00:12:30
(UTC+00:00)

NOAA 16 - Visible Passes

Search period start: 15 August 2022 00:00
Search period end: 25 August 2022 00:00
Orbit: 840 x 855 km, 98.6° (Epoch: 14 August)

Date Brightness Start Highest point End Pass type
(mag) Time Alt. Az. Time Alt. Az. Time Alt. Az.
15 Aug 5.7 20:53:29 11° S 20:58:38 57° W 21:04:03 10° NNW visible
16 Aug 5.4 20:40:47 11° S 20:45:57 72° WSW 20:51:28 10° NNW visible
16 Aug 7.7 22:25:57 10° WSW 22:27:36 11° W 22:29:17 10° WNW visible
17 Aug 5.2 20:28:05 11° SSE 20:33:19 89° WSW 20:38:50 10° NNW visible
17 Aug 7.6 22:11:48 10° WSW 22:14:46 15° W 22:17:45 10° NW visible
18 Aug 5.2 20:15:23 11° SSE 20:20:41 75° ENE 20:26:12 10° NNW visible
18 Aug 7.4 21:58:12 10° SW 22:01:57 19° W 22:05:44 10° NW visible
19 Aug 5.3 20:02:44 10° SSE 20:08:05 60° ENE 20:13:30 10° N visible
19 Aug 7.1 21:44:52 10° SW 21:49:10 23° W 21:53:30 10° NW visible
20 Aug 5.6 19:50:17 10° SE 19:55:31 48° ENE 20:00:47 10° N visible
20 Aug 6.8 21:31:58 11° SSW 21:36:24 29° W 21:41:09 10° NW visible
21 Aug 5.8 19:37:55 10° SE 19:42:58 39° ENE 19:48:02 10° N visible
21 Aug 6.4 21:19:15 13° SSW 21:23:39 36° W 21:28:43 10° NNW visible
22 Aug 6.1 19:25:39 10° ESE 19:30:26 32° ENE 19:35:15 10° N visible
22 Aug 6.1 21:06:35 15° SSW 21:10:56 45° W 21:16:13 10° NNW visible
23 Aug 5.7 20:53:53 16° S 20:58:14 57° W 21:03:40 10° NNW visible
24 Aug 5.4 20:41:12 16° S 20:45:34 72° WSW 20:51:06 10° NNW visible
24 Aug 7.7 22:25:35 10° WSW 22:27:14 11° W 22:28:54 10° WNW visible
